Regional Weather Roundup
Issued by NWS Midland/Odessa, TX

Home | Current Version | Previous Version | Text Only | Print | Product List | Glossary On
Versions: 1 2 3 4 5 6 7 8 9 10 11 12 13 14 15 16 17 18 19 20 21 22 23 24 25 26 27 28 29 30 31 32 33 34 35 36 37 38 39 40 41 42 43 44 45 46 47 48 49 50
000
ASUS44 KMAF 011101
RWRMAF
MIDLAND AREA WEATHER ROUNDUP
NATIONAL WEATHER SERVICE MIDLAND TX
600 AM CDT TUE SEP 01 2015

...IN SOUTHWEST TEXAS AND SOUTHEAST NEW MEXICO...

CITY           SKY/WX    TMP DP  RH WIND       PRES   REMARKS
ALPINE         CLEAR     62  51  67 W7        30.15S
ANDREWS        FAIR      65  56  72 S6        30.05R
ARTESIA        CLEAR     66  52  59 W9        30.04R
BIG SPRING     CLEAR     70  60  69 SE10      30.05S
CARLSBAD       CLEAR     69  52  54 S3        30.00R
DRYDEN           N/A     71  62  73 CALM      30.00R
FORT STOCKTON  CLEAR     71  61  70 SE15G21   30.02R
GUAD PASS      CLEAR     72  40  31 SW9       30.15F
HOBBS            N/A     66  55  68 S7        30.06R
MARFA          PTCLDY    55  46  71 NE6       30.14R
MIDLAND AIRPK  CLEAR     74  61  65 S8        30.04R
MIDLAND INTL   CLEAR     71  60  68 SE7       30.03S
ODESSA         CLEAR     72  60  66 S12       30.04R
PECOS          CLEAR     71  55  56 E8        29.97S
PRESIDIO       NOT AVBL
SEMINOLE       CLEAR     65  54  69 S6        30.06R
SNYDER         CLEAR     71  57  62 S6        30.04R
WINK           FAIR      72  57  59 SE13      29.98S
$$
...OTHER STATIONS IN TEXAS...

CITY           SKY/WX    TMP DP  RH WIND       PRES   REMARKS
ABILENE        CLEAR     73  65  75 S12       30.01S
AMARILLO       CLEAR     66  54  65 S12       30.06S
AUSTIN         MOCLDY    71  70  96 CALM      29.99F
BROWNSVILLE    PTCLDY    73  71  93 CALM      29.94R
CORPUS CHRISTI MOCLDY    73  70  90 SE6       29.96R
DALLAS FTW     PTCLDY    76  69  79 S8        30.01S
DEL RIO        CLEAR     73  69  87 E9        29.96S
EL PASO        PTCLDY    75  47  36 E3        30.02F
HOUSTON INT    PTCLDY    73  71  93 N3        30.00R
LUBBOCK        CLEAR     65  56  72 S7        30.05R
SAN ANGELO     CLEAR     73  65  75 S8        30.02S
SAN ANTONIO    MOCLDY    76  72  87 SE3       29.99S
WACO           CLEAR     73  69  87 S8        30.01F
WICHITA FALLS  NOT AVBL
$$
...OTHER LOCATIONS IN NEW MEXICO...

CITY           SKY/WX    TMP DP  RH WIND       PRES   REMARKS
ALAMAGORDO     CLEAR     70  46  43 E6        30.06S
ALBUQUERQUE    PTCLDY    68  48  48 S5        30.16R
CANNON AFB     CLEAR     67  52  59 W5        30.08S
CLOVIS         CLEAR     64  52  63 SW8       30.09S
HOLLOMAN AFB   CLEAR     69  51  52 NE5       30.03F
ROSWELL        CLEAR     67  49  52 S8        30.03R
RUIDOSO        CLEAR     63  46  55 MISG      30.26S
SANTA FE       PTCLDY    57  50  77 N8        30.21S
TRUTH OR CONSE CLEAR     70  50  49 NW9       30.11S
TUCUMCARI      PTCLDY    69  48  47 SW10      30.03S
$$



USA.gov is the U.S. government's official web portal to all federal, state and local government web resources and services.